SCP
0 0 0 0 0 0 0 0 0 0 0 0 0 0 0 0 0 0 0 0 0 0 0 0 0 0 0 0 0 0 0 0 0 0 0 0 1 0 0 0 0 0 0 0
0 0 0 0 0 0 0 0 0 0 0 0 0 0 0 0 0 0 0 0 0 0 0 0 0 0 0 0 0 0 0 0 0 1 0 0 0 0 0 0 0 0 0 0
0 0 0 0 0 0 0 0 0 0 0 0 0 0 0 0 0 0 0 0 0 0 0 0 0 0 0 0 0 0 0 0 0 0 0 0 0 0 0 0 0 0 0 0
0 0 0 0 0 0 0 0 0 0 0 0 0 -0 0 0 0 0 0 0 0 0 0 0 0 0 0 0 0 0 0 0 0 0 0 0 0 0 0 0 0 0 0 0
0 0 0 0 0 0 0 0 0 0 0 0 0 0 -0 -0 -0 0 0 0 0 0 0 0 0 0 0 0 -0 0 0 0 0 0 0 0 0 0 0 0 0 0 0 0
0 0 0 0 0 0 0 0 0 0 0 0 0 0 -0 -0 0 -0 0 0 0 0 0 0 0 0 0 0 0 0 0 0 0 0 0 0 0 0 0 0 0 0 0 0
0 0 0 0 0 0 0 0 0 0 0 0 0 0 0 0 0 0 0 0 0 0 0 0 0 0 0 0 0 0 0 0 0 0 0 0 0 0 0 0 0 0 0 0
0 0 0 0 0 0 0 0 0 0 0 0 0 0 0 -0 -0 -0 -0 0 0 0 0 0 0 0 0 0 0 0 0 0 0 0 0 0 0 0 0 0 0 0 0 0
-0 0 0 0 0 0 0 0 0 0 0 0 0 0 -0 0 0 0 -0 0 0 0 0 0 0 0 0 0 0 0 0 0 0 0 0 0 0 0 0 0 0 0 0 0
-0 0 0 0 0 0 0 0 0 0 0 0 0 -0 -0 0 0 -0 0 0 0 0 0 0 0 0 0 0 0 0 0 0 0 0 0 0 0 0 0 0 0 0 0 0
0 0 0 0 -0 0 0 0 0 0 0 0 0 0 -0 0 0 0 0 0 0 0 0 0 0 0 0 0 0 0 0 -0 0 0 0 0 0 0 0 0 0 0 0 0
0 0 0 0 0 0 0 0 0 0 0 0 -0 0 0 0 0 0 0 0 0 0 0 0 0 0 0 0 0 0 0 0 0 0 0 0 0 0 0 0 0 0 0 0
0 0 0 0 0 0 0 0 0 0 0 -0 -0 -0 -0 0 0 0 0 0 0 0 0 0 0 0 0 0 0 0 0 0 0 0 -0 0 0 0 0 0 0 0 0 0
0 0 0 0 0 0 0 0 0 0 0 -0 -0 -0 -0 -0 -0 0 0 0 0 0 0 0 0 0 0 0 -0 -0 0 0 -0 -0 0 0 0 0 0 0 0 0 0 0
0 0 0 0 0 0 0 0 0 0 0 -0 -0 -0 -0 -0 -0 -0 0 0 0 0 0 0 0 0 0 0 -0 0 0 0 -0 0 0 0 0 0 0 0 0 0 0 0
0 -0 -0 -0 0 0 0 0 0 0 0 -0 -0 -0 -0 -0 -0 -0 0 0 0 0 0 0 0 0 -0 -0 -0 0 0 -0 -0 0 0 0 0 0 0 0 0 0 0 0
0 0 0 -0 0 0 -0 -0 0 0 -0 -0 -0 -0 -0 -0 -0 -0 0 0 0 0 0 0 0 0 0 -0 -0 -0 -0 -0 -0 -0 0 0 0 0 -0 0 0 0 0 0
-0 0 -0 -0 -0 -0 0 0 0 0 0 0 0 -0 -0 -0 -0 -0 -0 0 0 0 0 0 0 0 0 0 -0 -0 -0 -0 -0 -0 0 0 -0 -0 -0 -0 -0 0 0 0
-0 -0 0 0 0 0 -0 0 0 0 0 0 0 0 -0 -0 -0 -0 0 0 0 0 0 0 0 0 0 0 -0 -0 -0 -0 -0 -0 -0 -0 -0 -0 -0 -0 -0 0 0 0
0 -0 0 0 0 0 0 -0 0 0 0 0 0 0 0 0 0 0 0 0 0 0 0 0 0 0 0 -0 0 -0 -0 0 0 0 -0 -0 -0 -0 -0 -0 -0 -0 0 0
0 0 -0 0 0 -0 -0 -0 0 0 0 0 0 0 0 0 0 0 0 0 0 0 0 0 0 0 -0 0 0 0 0 0 0 0 -0 -0 -0 -0 -0 -0 0 -0 0 0
0 0 0 0 0 0 -0 -0 0 0 0 0 0 0 0 0 0 0 0 0 0 0 0 0 0 0 -0 0 0 -0 -0 -0 -0 -0 -0 -0 -0 -0 -0 -0 0 0 0 0
0 0 0 0 0 0 0 -0 0 -0 0 0 0 0 0 0 0 0 0 0 0 0 0 0 0 0 0 0 0 -0 -0 -0 0 -0 -0 -0 -0 0 0 -0 -0 0 0 0
0 0 0 0 0 0 0 0 -0 0 0 0 0 0 0 0 0 0 0 0 0 0 0 0 0 0 0 0 0 0 0 -0 -0 -0 0 0 0 0 0 0 -0 -0 0 0
0 0 0 -0 -0 -0 0 -0 -0 0 0 0 0 0 0 0 0 0 0 0 0 0 0 0 0 0 0 0 0 0 0 -0 0 -0 0 0 0 0 0 0 0 0 0 0
0 0 0 0 -0 0 0 -0 0 0 0 0 0 0 0 0 0 0 0 0 0 0 0 0 0 0 0 0 0 0 0 0 0 0 0 0 0 0 0 0 0 0 0 -0
Wind_Speed_500mb
9 7 26 22 21 18 11 7 3 2 4 5 32 41 35 32 45 42 60 66 72 79 94 99 91 76 65 69 63 64 60 55 60 55 58 62 60 66 72 66 50 41 36 41
8 18 15 8 12 19 19 5 7 10 18 9 13 25 25 21 27 46 55 61 65 78 85 85 81 77 75 65 65 63 63 55 50 54 57 61 61 67 64 45 37 32 38 38
13 14 6 10 10 10 8 10 5 13 18 20 18 33 30 25 31 54 59 72 76 76 80 78 71 64 65 70 69 70 67 53 47 52 55 60 58 50 45 41 35 37 38 34
11 14 14 14 10 22 21 9 3 6 5 14 5 19 32 31 41 29 36 64 72 75 82 85 82 80 79 76 74 75 64 50 46 51 53 55 51 42 41 34 33 38 37 25
19 13 6 8 12 14 12 21 17 8 9 7 13 9 28 8 26 19 28 58 73 95 90 91 87 86 80 75 69 65 45 45 45 44 41 37 31 27 25 31 40 39 34 35
24 31 9 14 16 10 8 10 7 5 5 12 13 16 44 20 36 29 16 48 67 57 54 51 47 44 44 47 50 51 38 41 38 30 27 23 23 28 33 39 39 31 29 29
18 21 25 12 8 4 7 10 3 2 5 18 27 18 43 5 14 13 16 35 35 36 46 52 52 46 37 34 36 37 36 34 30 27 25 24 25 26 29 32 29 29 27 22
10 7 14 15 20 14 12 16 8 11 10 8 14 24 17 25 30 37 36 47 42 45 48 48 40 33 37 34 28 31 35 34 31 32 34 33 31 30 28 25 23 20 19 18
9 1 11 12 4 20 9 10 17 5 6 2 10 15 18 25 38 16 17 33 48 52 45 39 35 26 20 26 33 37 37 34 38 40 40 38 34 30 31 28 25 22 20 17
7 10 10 8 7 22 10 8 8 2 9 9 10 11 14 15 17 9 18 22 56 68 44 18 11 19 31 38 39 38 36 40 42 42 40 38 35 29 26 27 24 20 16 14
5 1 8 4 7 10 2 2 3 6 9 7 5 10 12 8 10 14 18 38 56 60 26 19 28 40 43 42 42 42 43 45 45 41 40 37 33 28 24 20 19 17 15 16
4 2 7 12 12 8 4 6 4 8 11 14 6 13 10 11 9 13 24 52 48 22 20 33 45 49 47 47 47 48 49 47 44 40 34 29 26 21 18 16 17 20 22 19
3 2 7 10 6 9 5 5 8 3 2 10 9 14 11 21 30 35 35 43 19 2 21 41 52 52 52 51 51 54 52 49 43 36 32 28 26 20 19 19 17 24 22 21
8 7 9 8 5 3 9 16 18 11 8 15 31 24 42 44 27 34 56 48 13 13 23 37 54 54 53 54 57 56 53 46 40 35 34 32 24 18 18 18 20 25 23 18
12 12 12 18 22 20 21 26 29 29 24 18 7 6 26 30 33 32 48 45 17 24 36 42 50 54 58 60 59 56 50 43 38 39 35 27 21 17 18 17 23 32 21 14
5 5 4 20 22 27 31 30 34 36 36 34 29 28 32 41 40 28 45 46 29 41 47 48 48 55 63 63 61 55 48 41 39 39 32 26 21 15 22 27 30 24 17 14
7 4 1 11 10 13 18 35 37 39 29 23 29 14 30 21 23 27 45 42 32 47 53 54 53 60 64 65 62 57 49 50 43 34 30 26 18 17 27 30 26 21 18 16
14 13 6 7 3 10 9 8 19 39 31 28 19 20 11 20 47 59 39 31 30 44 55 55 55 58 57 60 56 51 51 48 39 31 28 22 14 22 29 35 27 23 20 17
29 17 6 6 8 18 23 4 10 9 4 18 12 22 17 33 42 23 20 7 31 43 54 53 53 55 57 56 54 52 52 45 35 28 25 23 19 23 28 38 28 25 20 19
25 26 14 8 8 9 5 4 24 14 7 10 7 15 20 22 9 10 15 14 19 37 45 51 50 53 56 56 53 53 49 43 34 30 25 20 16 20 23 33 30 23 21 16
1 6 24 17 10 12 15 24 24 10 1 19 18 21 28 11 16 6 8 23 15 27 37 47 51 55 54 54 56 52 46 41 34 29 24 23 22 21 20 23 25 22 21 20
6 8 3 7 8 9 22 23 10 13 35 30 29 26 33 41 34 24 15 29 7 26 42 45 54 57 55 55 55 51 46 38 33 28 29 25 24 21 20 20 21 20 18 20
5 4 6 4 4 9 22 32 54 55 40 24 29 41 31 30 19 26 23 34 10 17 46 48 55 59 59 58 53 52 43 42 37 32 31 29 24 21 18 18 18 17 17 20
7 1 5 9 5 21 14 37 37 35 27 37 18 16 8 8 16 28 28 30 9 22 41 50 49 57 60 58 56 44 42 44 40 36 36 32 26 20 17 12 12 10 11 17
7 10 12 7 12 34 20 45 43 52 47 43 22 14 7 12 24 24 30 26 21 18 23 47 45 54 57 57 54 52 45 45 43 38 35 33 28 20 16 15 12 7 8 7
4 7 6 6 31 19 24 34 52 58 54 52 36 29 27 33 38 32 31 19 14 9 3 27 41 46 56 59 51 54 47 45 46 41 35 37 32 26 18 14 19 15 14 14
Wind_Direction_500mb
269 199 222 228 239 256 42 71 56 322 263 281 222 249 253 251 258 257 264 263 266 271 276 281 282 285 285 285 294 295 298 281 279 255 251 245 240 244 249 251 254 248 225 226
339 261 260 247 203 244 271 264 256 266 260 214 275 277 280 264 258 259 259 261 262 272 275 277 280 277 276 280 296 297 297 280 260 245 248 240 242 243 248 253 245 218 217 218
198 254 336 266 231 230 203 218 209 226 293 283 301 283 272 262 236 251 255 262 263 262 271 275 275 274 276 283 288 295 293 284 252 246 244 240 240 244 240 231 215 207 209 208
215 254 233 224 232 225 242 178 248 325 166 258 21 289 271 271 264 249 253 259 265 269 267 269 272 275 278 279 283 290 281 268 247 242 241 239 242 242 239 227 205 203 203 197
237 197 220 240 212 186 244 200 226 223 253 269 258 310 281 241 266 270 252 256 257 260 264 269 272 275 276 275 275 277 261 243 239 237 239 237 239 231 216 191 189 187 189 185
250 254 204 217 241 204 205 180 166 163 150 253 207 194 279 251 248 255 260 253 255 263 270 275 278 280 277 273 266 260 240 226 224 221 218 212 210 195 186 182 181 180 176 181
285 235 227 205 245 236 161 103 145 91 175 231 181 184 236 259 306 242 278 287 289 277 280 279 281 281 278 262 257 238 217 205 191 188 178 170 180 188 188 187 185 181 181 194
284 180 172 191 200 202 184 163 178 177 183 220 199 226 248 234 255 276 278 277 293 298 293 285 283 272 273 254 231 201 184 173 169 162 158 158 171 174 173 177 177 181 195 204
331 141 356 19 351 172 198 167 212 23 282 198 212 279 288 283 286 290 290 308 310 315 311 294 274 262 232 188 168 166 162 164 159 159 158 160 166 168 167 175 182 186 190 207
295 294 133 195 97 303 180 183 107 331 206 247 254 258 233 318 286 355 324 302 321 325 286 268 211 172 156 155 155 160 161 160 158 159 157 158 159 164 170 173 181 192 206 214
288 179 312 335 202 185 153 293 201 174 185 211 304 266 220 248 70 334 304 331 323 320 251 184 162 152 154 156 156 157 157 157 155 154 152 153 155 158 165 180 191 195 178 173
321 1 283 264 290 344 338 257 230 205 253 252 130 278 330 112 63 8 348 335 334 336 178 164 156 153 155 155 157 158 157 156 153 152 153 156 157 163 168 169 168 161 162 158
335 308 312 323 350 28 86 315 268 228 158 221 224 242 278 328 0 350 337 343 322 258 165 163 155 157 159 160 161 160 159 156 153 155 154 150 145 144 152 149 149 158 160 154
266 216 218 221 293 346 298 296 299 273 256 252 245 288 296 303 337 335 323 330 283 194 168 165 159 163 164 164 164 162 160 159 158 154 147 144 142 145 152 154 158 160 153 147
183 229 220 243 260 268 259 268 271 262 256 249 327 292 288 304 309 298 299 318 233 195 182 176 171 167 168 166 164 164 163 163 160 154 150 148 152 150 154 148 157 154 151 146
164 265 258 280 263 245 251 259 258 251 246 255 257 269 272 279 285 290 296 313 226 202 188 185 181 176 169 169 169 168 166 164 159 156 161 169 166 165 163 155 152 152 154 153
195 238 269 269 264 322 288 246 237 243 238 219 234 224 260 283 291 281 286 300 231 202 191 189 187 182 177 173 171 168 167 160 160 168 179 177 182 183 170 173 167 173 170 163
202 196 217 265 7 245 227 341 301 244 230 221 248 247 231 268 279 278 278 284 230 201 194 191 187 184 185 173 169 167 168 169 175 186 191 184 176 169 171 171 167 174 181 172
211 201 250 231 220 285 298 35 350 356 219 220 245 262 282 296 288 268 233 245 209 200 197 194 186 185 184 179 167 164 167 173 185 190 189 182 171 175 179 178 175 178 180 174
215 215 194 180 244 258 139 265 335 297 278 83 298 285 279 298 226 245 198 180 169 193 195 188 187 187 185 183 173 166 170 180 187 182 188 178 172 170 179 184 187 185 191 194
144 197 225 233 241 276 15 327 307 199 276 320 307 299 285 254 242 304 206 175 136 171 189 188 186 187 183 181 179 179 181 187 186 189 173 168 170 158 158 169 185 191 193 198
304 319 256 214 236 248 3 323 301 337 316 297 311 305 291 288 289 232 203 182 84 170 184 188 187 186 185 184 182 183 184 175 186 181 177 170 177 175 184 184 194 199 205 209
319 267 291 241 296 261 290 272 286 298 284 289 318 304 295 298 256 205 175 180 192 186 181 188 189 186 194 194 191 186 182 188 189 184 176 183 184 190 201 204 208 214 217 216
279 7 269 293 264 308 279 338 328 322 306 351 330 306 335 251 204 186 158 150 98 136 177 188 193 196 196 198 200 191 186 192 193 192 192 193 191 190 199 207 212 226 227 212
250 313 298 254 287 326 339 341 340 352 20 19 36 44 75 105 134 143 145 145 81 61 185 202 197 204 203 200 203 199 190 192 196 200 200 203 197 194 192 192 175 142 118 105
283 301 330 322 303 304 296 339 7 5 6 20 18 42 60 82 97 102 103 111 62 358 239 207 212 214 211 206 203 201 195 194 197 203 207 207 202 193 187 185 168 153 128 119
Wind_Speed_850mb
9 7 26 22 21 18 11 7 3 2 4 5 32 41 35 32 45 42 60 66 72 79 94 99 91 76 65 69 63 64 60 55 60 55 58 62 60 66 72 66 50 41 36 41
8 18 15 8 12 19 19 5 7 10 18 9 13 25 25 21 27 46 55 61 65 78 85 85 81 77 75 65 65 63 63 55 50 54 57 61 61 67 64 45 37 32 38 38
13 14 6 10 10 10 8 10 5 13 18 20 18 33 30 25 31 54 59 72 76 76 80 78 71 64 65 70 69 70 67 53 47 52 55 60 58 50 45 41 35 37 38 34
11 14 14 14 10 22 21 9 3 6 5 14 5 19 32 31 41 29 36 64 72 75 82 85 82 80 79 76 74 75 64 50 46 51 53 55 51 42 41 34 33 38 37 25
19 13 6 8 12 14 12 21 17 8 9 7 13 9 28 8 26 19 28 58 73 95 90 91 87 86 80 75 69 65 45 45 45 44 41 37 31 27 25 31 40 39 34 35
24 31 9 14 16 10 8 10 7 5 5 12 13 16 44 20 36 29 16 48 67 57 54 51 47 44 44 47 50 51 38 41 38 30 27 23 23 28 33 39 39 31 29 29
18 21 25 12 8 4 7 10 3 2 5 18 27 18 43 5 14 13 16 35 35 36 46 52 52 46 37 34 36 37 36 34 30 27 25 24 25 26 29 32 29 29 27 22
10 7 14 15 20 14 12 16 8 11 10 8 14 24 17 25 30 37 36 47 42 45 48 48 40 33 37 34 28 31 35 34 31 32 34 33 31 30 28 25 23 20 19 18
9 1 11 12 4 20 9 10 17 5 6 2 10 15 18 25 38 16 17 33 48 52 45 39 35 26 20 26 33 37 37 34 38 40 40 38 34 30 31 28 25 22 20 17
7 10 10 8 7 22 10 8 8 2 9 9 10 11 14 15 17 9 18 22 56 68 44 18 11 19 31 38 39 38 36 40 42 42 40 38 35 29 26 27 24 20 16 14
5 1 8 4 7 10 2 2 3 6 9 7 5 10 12 8 10 14 18 38 56 60 26 19 28 40 43 42 42 42 43 45 45 41 40 37 33 28 24 20 19 17 15 16
4 2 7 12 12 8 4 6 4 8 11 14 6 13 10 11 9 13 24 52 48 22 20 33 45 49 47 47 47 48 49 47 44 40 34 29 26 21 18 16 17 20 22 19
3 2 7 10 6 9 5 5 8 3 2 10 9 14 11 21 30 35 35 43 19 2 21 41 52 52 52 51 51 54 52 49 43 36 32 28 26 20 19 19 17 24 22 21
8 7 9 8 5 3 9 16 18 11 8 15 31 24 42 44 27 34 56 48 13 13 23 37 54 54 53 54 57 56 53 46 40 35 34 32 24 18 18 18 20 25 23 18
12 12 12 18 22 20 21 26 29 29 24 18 7 6 26 30 33 32 48 45 17 24 36 42 50 54 58 60 59 56 50 43 38 39 35 27 21 17 18 17 23 32 21 14
5 5 4 20 22 27 31 30 34 36 36 34 29 28 32 41 40 28 45 46 29 41 47 48 48 55 63 63 61 55 48 41 39 39 32 26 21 15 22 27 30 24 17 14
7 4 1 11 10 13 18 35 37 39 29 23 29 14 30 21 23 27 45 42 32 47 53 54 53 60 64 65 62 57 49 50 43 34 30 26 18 17 27 30 26 21 18 16
14 13 6 7 3 10 9 8 19 39 31 28 19 20 11 20 47 59 39 31 30 44 55 55 55 58 57 60 56 51 51 48 39 31 28 22 14 22 29 35 27 23 20 17
29 17 6 6 8 18 23 4 10 9 4 18 12 22 17 33 42 23 20 7 31 43 54 53 53 55 57 56 54 52 52 45 35 28 25 23 19 23 28 38 28 25 20 19
25 26 14 8 8 9 5 4 24 14 7 10 7 15 20 22 9 10 15 14 19 37 45 51 50 53 56 56 53 53 49 43 34 30 25 20 16 20 23 33 30 23 21 16
1 6 24 17 10 12 15 24 24 10 1 19 18 21 28 11 16 6 8 23 15 27 37 47 51 55 54 54 56 52 46 41 34 29 24 23 22 21 20 23 25 22 21 20
6 8 3 7 8 9 22 23 10 13 35 30 29 26 33 41 34 24 15 29 7 26 42 45 54 57 55 55 55 51 46 38 33 28 29 25 24 21 20 20 21 20 18 20
5 4 6 4 4 9 22 32 54 55 40 24 29 41 31 30 19 26 23 34 10 17 46 48 55 59 59 58 53 52 43 42 37 32 31 29 24 21 18 18 18 17 17 20
7 1 5 9 5 21 14 37 37 35 27 37 18 16 8 8 16 28 28 30 9 22 41 50 49 57 60 58 56 44 42 44 40 36 36 32 26 20 17 12 12 10 11 17
7 10 12 7 12 34 20 45 43 52 47 43 22 14 7 12 24 24 30 26 21 18 23 47 45 54 57 57 54 52 45 45 43 38 35 33 28 20 16 15 12 7 8 7
4 7 6 6 31 19 24 34 52 58 54 52 36 29 27 33 38 32 31 19 14 9 3 27 41 46 56 59 51 54 47 45 46 41 35 37 32 26 18 14 19 15 14 14
Wind_Direction_850mb
269 199 222 228 239 256 42 71 56 322 263 281 222 249 253 251 258 257 264 263 266 271 276 281 282 285 285 285 294 295 298 281 279 255 251 245 240 244 249 251 254 248 225 226
339 261 260 247 203 244 271 264 256 266 260 214 275 277 280 264 258 259 259 261 262 272 275 277 280 277 276 280 296 297 297 280 260 245 248 240 242 243 248 253 245 218 217 218
198 254 336 266 231 230 203 218 209 226 293 283 301 283 272 262 236 251 255 262 263 262 271 275 275 274 276 283 288 295 293 284 252 246 244 240 240 244 240 231 215 207 209 208
215 254 233 224 232 225 242 178 248 325 166 258 21 289 271 271 264 249 253 259 265 269 267 269 272 275 278 279 283 290 281 268 247 242 241 239 242 242 239 227 205 203 203 197
237 197 220 240 212 186 244 200 226 223 253 269 258 310 281 241 266 270 252 256 257 260 264 269 272 275 276 275 275 277 261 243 239 237 239 237 239 231 216 191 189 187 189 185
250 254 204 217 241 204 205 180 166 163 150 253 207 194 279 251 248 255 260 253 255 263 270 275 278 280 277 273 266 260 240 226 224 221 218 212 210 195 186 182 181 180 176 181
285 235 227 205 245 236 161 103 145 91 175 231 181 184 236 259 306 242 278 287 289 277 280 279 281 281 278 262 257 238 217 205 191 188 178 170 180 188 188 187 185 181 181 194
284 180 172 191 200 202 184 163 178 177 183 220 199 226 248 234 255 276 278 277 293 298 293 285 283 272 273 254 231 201 184 173 169 162 158 158 171 174 173 177 177 181 195 204
331 141 356 19 351 172 198 167 212 23 282 198 212 279 288 283 286 290 290 308 310 315 311 294 274 262 232 188 168 166 162 164 159 159 158 160 166 168 167 175 182 186 190 207
295 294 133 195 97 303 180 183 107 331 206 247 254 258 233 318 286 355 324 302 321 325 286 268 211 172 156 155 155 160 161 160 158 159 157 158 159 164 170 173 181 192 206 214
288 179 312 335 202 185 153 293 201 174 185 211 304 266 220 248 70 334 304 331 323 320 251 184 162 152 154 156 156 157 157 157 155 154 152 153 155 158 165 180 191 195 178 173
321 1 283 264 290 344 338 257 230 205 253 252 130 278 330 112 63 8 348 335 334 336 178 164 156 153 155 155 157 158 157 156 153 152 153 156 157 163 168 169 168 161 162 158
335 308 312 323 350 28 86 315 268 228 158 221 224 242 278 328 0 350 337 343 322 258 165 163 155 157 159 160 161 160 159 156 153 155 154 150 145 144 152 149 149 158 160 154
266 216 218 221 293 346 298 296 299 273 256 252 245 288 296 303 337 335 323 330 283 194 168 165 159 163 164 164 164 162 160 159 158 154 147 144 142 145 152 154 158 160 153 147
183 229 220 243 260 268 259 268 271 262 256 249 327 292 288 304 309 298 299 318 233 195 182 176 171 167 168 166 164 164 163 163 160 154 150 148 152 150 154 148 157 154 151 146
164 265 258 280 263 245 251 259 258 251 246 255 257 269 272 279 285 290 296 313 226 202 188 185 181 176 169 169 169 168 166 164 159 156 161 169 166 165 163 155 152 152 154 153
195 238 269 269 264 322 288 246 237 243 238 219 234 224 260 283 291 281 286 300 231 202 191 189 187 182 177 173 171 168 167 160 160 168 179 177 182 183 170 173 167 173 170 163
202 196 217 265 7 245 227 341 301 244 230 221 248 247 231 268 279 278 278 284 230 201 194 191 187 184 185 173 169 167 168 169 175 186 191 184 176 169 171 171 167 174 181 172
211 201 250 231 220 285 298 35 350 356 219 220 245 262 282 296 288 268 233 245 209 200 197 194 186 185 184 179 167 164 167 173 185 190 189 182 171 175 179 178 175 178 180 174
215 215 194 180 244 258 139 265 335 297 278 83 298 285 279 298 226 245 198 180 169 193 195 188 187 187 185 183 173 166 170 180 187 182 188 178 172 170 179 184 187 185 191 194
144 197 225 233 241 276 15 327 307 199 276 320 307 299 285 254 242 304 206 175 136 171 189 188 186 187 183 181 179 179 181 187 186 189 173 168 170 158 158 169 185 191 193 198
304 319 256 214 236 248 3 323 301 337 316 297 311 305 291 288 289 232 203 182 84 170 184 188 187 186 185 184 182 183 184 175 186 181 177 170 177 175 184 184 194 199 205 209
319 267 291 241 296 261 290 272 286 298 284 289 318 304 295 298 256 205 175 180 192 186 181 188 189 186 194 194 191 186 182 188 189 184 176 183 184 190 201 204 208 214 217 216
279 7 269 293 264 308 279 338 328 322 306 351 330 306 335 251 204 186 158 150 98 136 177 188 193 196 196 198 200 191 186 192 193 192 192 193 191 190 199 207 212 226 227 212
250 313 298 254 287 326 339 341 340 352 20 19 36 44 75 105 134 143 145 145 81 61 185 202 197 204 203 200 203 199 190 192 196 200 200 203 197 194 192 192 175 142 118 105
283 301 330 322 303 304 296 339 7 5 6 20 18 42 60 82 97 102 103 111 62 358 239 207 212 214 211 206 203 201 195 194 197 203 207 207 202 193 187 185 168 153 128 119